TimeEST,TemperatureF,Dew PointF,Humidity,Sea Level PressureIn,VisibilityMPH,Wind Direction,Wind SpeedMPH,Gust SpeedMPH,PrecipitationIn,Events,Conditions,WindDirDegrees,DateUTC
12:03 AM,53.6,51.8,94,30.11,2.0,NW,4.6,-,N/A,,Mostly Cloudy,320,2012-01-08 05:03:00
12:15 AM,51.8,51.8,100,30.12,2.0,West,3.5,-,N/A,,Overcast,270,2012-01-08 05:15:00
12:19 AM,51.8,51.8,100,30.12,1.8,West,3.5,-,N/A,,Overcast,270,2012-01-08 05:19:00
12:22 AM,53.6,51.8,94,30.12,0.5,Calm,Calm,-,N/A,Fog,Fog,0,2012-01-08 05:22:00
12:32 AM,51.8,51.8,100,30.12,2.0,Calm,Calm,-,N/A,,Overcast,0,2012-01-08 05:32:00
12:42 AM,51.8,51.8,100,30.12,4.0,NW,4.6,-,N/A,,Overcast,320,2012-01-08 05:42:00
12:53 AM,52.0,50.0,93,30.11,10.0,North,3.5,-,N/A,,Overcast,350,2012-01-08 05:53:00
1:53 AM,50.0,42.1,74,30.13,10.0,North,3.5,-,N/A,,Overcast,350,2012-01-08 06:53:00
2:53 AM,50.0,39.0,66,30.13,10.0,NNE,3.5,-,N/A,,Overcast,20,2012-01-08 07:53:00
3:53 AM,48.0,39.9,74,30.14,10.0,North,3.5,-,N/A,,Overcast,360,2012-01-08 08:53:00
4:53 AM,48.0,39.9,74,30.14,10.0,North,3.5,-,N/A,,Overcast,350,2012-01-08 09:53:00
5:53 AM,48.0,37.9,68,30.16,10.0,North,3.5,-,N/A,,Overcast,10,2012-01-08 10:53:00
6:53 AM,48.0,39.0,71,30.16,10.0,NNE,4.6,-,N/A,,Overcast,20,2012-01-08 11:53:00
7:53 AM,46.9,39.0,74,30.17,10.0,NE,3.5,-,N/A,,Overcast,40,2012-01-08 12:53:00
8:53 AM,46.9,37.9,71,30.19,10.0,NNE,5.8,-,N/A,,Overcast,20,2012-01-08 13:53:00
9:53 AM,48.0,39.0,71,30.20,10.0,NE,5.8,-,N/A,,Overcast,40,2012-01-08 14:53:00
10:00 AM,48.2,39.2,71,30.21,10.0,NNE,5.8,-,N/A,,Overcast,30,2012-01-08 15:00:00
10:53 AM,48.9,41.0,74,30.22,10.0,North,6.9,-,N/A,,Overcast,360,2012-01-08 15:53:00
11:53 AM,48.9,41.0,74,30.21,10.0,North,5.8,-,N/A,,Overcast,350,2012-01-08 16:53:00
12:53 PM,50.0,43.0,77,30.19,10.0,North,4.6,-,N/A,,Overcast,350,2012-01-08 17:53:00
1:53 PM,50.0,43.0,77,30.17,10.0,NNE,5.8,-,N/A,,Overcast,30,2012-01-08 18:53:00
2:53 PM,51.1,42.1,71,30.17,10.0,NNE,6.9,-,0.00,Rain,Light Rain,30,2012-01-08 19:53:00
3:53 PM,51.1,39.9,66,30.17,10.0,NE,4.6,-,0.00,Rain,Light Rain,50,2012-01-08 20:53:00
4:53 PM,48.9,43.0,80,30.18,6.0,North,4.6,-,0.00,Rain,Light Rain,10,2012-01-08 21:53:00
5:53 PM,46.9,44.1,90,30.20,5.0,NNE,4.6,-,0.03,Rain,Rain,30,2012-01-08 22:53:00
6:53 PM,46.0,45.0,96,30.21,5.0,NNE,3.5,-,0.04,Rain,Light Rain,30,2012-01-08 23:53:00
7:53 PM,46.0,44.1,93,30.22,9.0,North,5.8,-,0.00,,Overcast,10,2012-01-09 00:53:00
8:18 PM,46.4,44.6,93,30.22,9.0,North,4.6,-,N/A,,Overcast,10,2012-01-09 01:18:00
8:53 PM,46.0,44.1,93,30.21,9.0,ENE,3.5,-,N/A,,Overcast,70,2012-01-09 01:53:00
9:18 PM,46.4,44.6,93,30.21,7.0,NE,3.5,-,N/A,,Overcast,50,2012-01-09 02:18:00
9:53 PM,46.9,44.1,90,30.20,9.0,NNE,4.6,-,N/A,,Overcast,30,2012-01-09 02:53:00
10:53 PM,46.0,44.1,93,30.20,8.0,NE,4.6,-,N/A,,Overcast,50,2012-01-09 03:53:00
11:12 PM,46.4,44.6,93,30.20,8.0,Calm,Calm,-,N/A,,Overcast,0,2012-01-09 04:12:00
11:53 PM,46.0,44.1,93,30.18,8.0,NNE,5.8,-,N/A,,Overcast,20,2012-01-09 04:53:00